Погода в Щетиновке

Россия / Белгородская область     50°26′17″N   36°10′46″E
темп.,
°C
ветер,
м/с
пор.,
м/с
влажн.,
%
обл.,
%
осадки,
мм/ч
давл.,
гПа
погр.,
м
8 марта, пн
пн800:00−1зюз91593100 0.4 1009934
03:00−1зюз71394100 0.8 1008726
06:00−1зюз81395100 0.8 1007704
09:00−1зюз81292100 1.4 1007775
12:00+1з71188100 0.5 1008840
15:000зсз5885100 1.6 1008733
18:00−1зсз497392 0.1 1009410
21:00−3зсз378646 0.2 1010244
9 марта, вт
вт900:00−4з258860 0.1 1011211
03:00−4зсз468974 0.1 1012440
06:00−5сз479090 0.0 1013456
09:00−6сз687992 0.1 1014627
12:00−5сз677099 0.0 1016953
15:00−4сз6768100 0.1 10181093
18:00−6ссз5772100 0.1 1019987
21:00−7ссз4773100 0.1 1022932
10 марта, ср
ср1000:00−8ссз4773100 0.1 1023874
03:00−9ссз467754 0.1 1025550
06:00−10ссз35835 0.0 1026357
09:00−9ссз34742 0.0 1027373
12:00−6сз345718 0.0 1027742
15:00−5сз33509 0.0 1027877
18:00−5с335965 0.0 1026737
21:00−6св337577 0.0 1027315
11 марта, чт
чт1100:00−7в349089 0.1 1028332
03:00−10в578894 0.6 1030427
06:00−11всв4678100 0.3 1030391
09:00−11в466099 0.3 1032411
12:00−8в444338 0.0 1032707
15:00−6вюв333519 0.0 1031964
18:00−7вюв33400 0.0 1031870
21:00−8вюв36530 0.0 1032332
12 марта, пт
пт1200:00−9юв48560 0.0 1032358
03:00−9ююв48570 0.0 1031346
06:00−10ююв5105417 0.0 1031350
09:00−8ююв7114458 0.0 1030503
12:00−5ю81140100 0.0 1028690
15:00−2ю81137100 0.0 1027922
18:00−3ю81337100 0.0 1025866
21:00−3ю81445100 0.3 1025930